Location: Easthampton
(42.2676°N, 72.6690°W)
Time: 13:25:18
(UTC+00:00)

YUBILEINY - Visible Passes

Search period start: 21 March 2023 00:00
Search period end: 31 March 2023 00:00
Orbit: 1477 x 1509 km, 82.5° (Epoch: 21 March)

Date Brightness Start Highest point End Pass type
(mag) Time Alt. Az. Time Alt. Az. Time Alt. Az.
21 Mar ? 04:21:42 10° N 04:26:51 36° NNE 04:26:51 36° NNE visible
21 Mar ? 06:18:58 10° NNW 06:22:45 25° NW 06:22:45 25° NW visible
22 Mar ? 03:32:40 10° N 03:37:42 26° NE 03:37:42 26° NE visible
22 Mar ? 05:28:51 10° NNW 05:33:37 36° NNW 05:33:37 36° NNW visible
23 Mar ? 02:44:29 10° NNE 02:48:34 16° NE 02:48:34 16° NE visible
23 Mar ? 04:39:08 10° N 04:44:28 42° N 04:44:28 42° N visible
23 Mar ? 06:37:21 10° NNW 06:40:22 19° NW 06:40:22 19° NW visible
24 Mar ? 03:49:48 10° N 03:55:20 35° NE 03:55:20 35° NE visible
24 Mar ? 05:46:45 10° NNW 05:51:15 30° NW 05:51:15 30° NW visible
25 Mar ? 03:00:56 10° NNE 03:06:13 23° NE 03:06:13 23° NE visible
25 Mar ? 04:56:45 10° N 05:02:08 43° NNW 05:02:08 43° NNW visible
25 Mar ? 06:56:33 10° NW 06:58:02 12° NW 06:58:02 12° NW visible
26 Mar ? 02:13:19 10° NNE 02:17:05 13° NE 02:17:06 13° NE visible
26 Mar ? 04:07:09 10° N 04:13:01 45° NNE 04:13:01 45° NNE visible
26 Mar ? 06:04:55 10° NNW 06:08:55 23° NW 06:08:55 23° NW visible
27 Mar ? 03:17:55 10° N 03:23:54 33° NE 03:23:54 33° NE visible
27 Mar ? 05:14:33 10° NNW 05:19:49 37° NW 05:19:49 37° NW visible
28 Mar ? 02:29:18 10° NNE 02:34:48 20° NE 02:34:48 20° NE visible
28 Mar ? 04:24:41 10° N 04:30:43 50° N 04:30:43 50° N visible
28 Mar ? 06:23:40 10° NW 06:26:37 16° WNW 06:26:37 16° WNW visible
29 Mar ? 01:43:06 10° NE 01:44:37 10° NE 01:45:43 10° ENE visible
29 Mar ? 03:35:12 10° N 03:41:38 45° NE 03:41:38 45° NE visible
29 Mar ? 05:32:36 10° NNW 05:37:32 29° NW 05:37:32 29° NW visible
30 Mar ? 02:46:07 10° N 02:52:33 30° NE 02:52:33 30° NE visible
30 Mar ? 04:42:24 10° NNW 04:48:27 46° NW 04:48:27 46° NW visible
